CZ-6A DEB, 56598

Orbit data source: Space-Track

CZ-6A DEB, 56598 is space debris in SSO originally from a launch on Fri, 11 Nov 2022 UTC launched from the Taiyaun Space Center, China (TSC). Debris objects in space refer to the collection of defunct objects orbiting the Earth. Examples of debris include non-operational satellites, rocket bodies, and fragments generated from explosions, collisions, or faulty payload assembly.

Loading next visibility...
Identifier
56598, 2022-151ADW
Orbit
SSO
Country
Flag of CNCN / PRC
Related business
Manufacturer
SAST
Mission
Spacecraft
Bus & Motor
Unknown
Mass
Unknown
Launch date (UTC)
2022-11-11 (3 years ago)
Launch vehicle
Unknown
Launch site
Taiyaun Space Center, China (TSC)
Object type
Payload
Rocket body
Debris
Shape & HBR
Unknown shape, 0.1 m
Radar Cross Section
Small (<0.1 m²)

Expand to show TLE details & history
Last TLE update: 2 days ago

TLE from 2 days ago
0 CZ-6A DEB
1 56598U 22151ADW 25348.77034435  .00001593  00000-0  72683-3 0  9996
2 56598  98.7820   2.3707 0045203 155.8893 204.4414 14.22459504137232
Epoch: 2025-12-14T18:29Z
TLE epoch observation values (Epoch: 2025-12-14T18:29:17.751Z)
Latitude
-0.00005°
Longitude
1.36825°
Altitude
849.603 km
Speed
7.413 km/s
True Right ascension
00h 09m 28s
True Declination
0° 00' 00"
Sunlit
Object was in daylight at epoch
Visualization orbit readout
Latitude
Unknown
Longitude
Unknown
Altitude
Unknown
Speed
Unknown
Apparent Right ascension
Unknown
Apparent Declination
Unknown
Sunlit
N/A
Visualization observer readout
Local Sidereal Time
11:31:49
Azimuth
Unknown
Elevation
Unknown
Doppler factor
Unknown
Orbital elements
Apogee altitude
846.717 km
Perigee altitude
781.694 km
Semi-major axis
7,192.343 km
Eccentricity
0.00452
Inclination
98.782°
RAAN
2.3707°
Arg. of periapsis
155.8893°
True anomaly
204.22817°
Mean anomaly
204.4414°
Eccentric anomaly
204.33468°
Mean motion
3.55826 °/min
Orbital period
101.17 mins
BSTAR
0.00072683
Loading maneuver chart data...
Computing Atmospheric mass density...
Loading historical data...
Loading historical data...
Loading historical data...
Loading historical data...
Loading historical data...
Loading historical data...
Loading historical data...

Documentation

Showing up to 5 results
|